contact:dominique.lefevre@mio.osupytheas.fr, maurice.libes@osupytheas.fr, didier.mallarino@osupytheas.fr
Project:EMSO http://www.emso-fr.org/EMSO-France
Depth: 2436.0 m
Title:EMSO Ligure Ouest : Data MII capteur MICROCAT
DateTime_Computer,Latitude,Longitude,Temperature,Conductivity,Pressure,DateTime_Instrument
DateTime_Computer,Latitude,Longitude,degC,S m-1,dbar,DateTime_Instrument
2021-08-29T00:00:20Z,42.805,6.029,13.2983,4.59997,2470.366,2021-8-29T02:01:40Z
2021-08-29T00:03:23Z,42.805,6.029,13.2988,4.59997,2470.404,2021-8-29T02:04:43Z
2021-08-29T00:06:26Z,42.805,6.029,13.2982,4.59998,2470.427,2021-8-29T02:07:46Z
2021-08-29T00:09:29Z,42.805,6.029,13.2986,4.59998,2470.39,2021-8-29T02:10:49Z
2021-08-29T00:12:32Z,42.805,6.029,13.2981,4.59997,2470.366,2021-8-29T02:13:52Z
2021-08-29T00:15:36Z,42.805,6.029,13.2983,4.59996,2470.366,2021-8-29T02:16:55Z
2021-08-29T00:18:39Z,42.805,6.029,13.2985,4.59997,2470.366,2021-8-29T02:19:58Z
2021-08-29T00:21:42Z,42.805,6.029,13.2987,4.59997,2470.366,2021-8-29T02:23:01Z
2021-08-29T00:24:45Z,42.805,6.029,13.2982,4.59998,2470.366,2021-8-29T02:26:05Z
2021-08-29T00:27:48Z,42.805,6.029,13.2988,4.59997,2470.404,2021-8-29T02:29:08Z
2021-08-29T00:30:51Z,42.805,6.029,13.2984,4.59998,2470.357,2021-8-29T02:32:11Z
2021-08-29T00:33:54Z,42.805,6.029,13.2989,4.59998,2470.366,2021-8-29T02:35:14Z
2021-08-29T00:36:57Z,42.805,6.029,13.2987,4.59997,2470.39,2021-8-29T02:38:17Z
2021-08-29T00:40:01Z,42.805,6.029,13.2988,4.59997,2470.366,2021-8-29T02:41:20Z
2021-08-29T00:43:04Z,42.805,6.029,13.2983,4.59997,2470.38,2021-8-29T02:44:23Z
2021-08-29T00:46:07Z,42.805,6.029,13.2982,4.59997,2470.366,2021-8-29T02:47:26Z
2021-08-29T00:49:10Z,42.805,6.029,13.2983,4.59997,2470.357,2021-8-29T02:50:30Z
2021-08-29T00:52:13Z,42.805,6.029,13.2985,4.59998,2470.39,2021-8-29T02:53:33Z
2021-08-29T00:55:16Z,42.805,6.029,13.2987,4.59997,2470.366,2021-8-29T02:56:36Z
2021-08-29T00:58:19Z,42.805,6.029,13.2988,4.59998,2470.366,2021-8-29T02:59:39Z
2021-08-29T01:01:22Z,42.805,6.029,13.2986,4.59998,2470.357,2021-8-29T03:02:42Z
2021-08-29T01:04:26Z,42.805,6.029,13.2987,4.59998,2470.357,2021-8-29T03:05:45Z
2021-08-29T01:07:29Z,42.805,6.029,13.2984,4.59999,2470.38,2021-8-29T03:08:48Z
2021-08-29T01:10:32Z,42.805,6.029,13.2986,4.59996,2470.343,2021-8-29T03:11:51Z
2021-08-29T01:13:35Z,42.805,6.029,13.2986,4.59998,2470.39,2021-8-29T03:14:55Z
2021-08-29T01:16:38Z,42.805,6.029,13.2984,4.59998,2470.357,2021-8-29T03:17:58Z
2021-08-29T01:19:41Z,42.805,6.029,13.2983,4.59997,2470.353,2021-8-29T03:21:01Z
2021-08-29T01:22:44Z,42.805,6.029,13.2985,4.59999,2470.38,2021-8-29T03:24:04Z
2021-08-29T01:25:47Z,42.805,6.029,13.2986,4.59998,2470.366,2021-8-29T03:27:07Z
2021-08-29T01:28:51Z,42.805,6.029,13.2986,4.59997,2470.357,2021-8-29T03:30:10Z
2021-08-29T01:31:54Z,42.805,6.029,13.2986,4.59999,2470.357,2021-8-29T03:33:13Z
2021-08-29T01:34:57Z,42.805,6.029,13.2983,4.59997,2470.343,2021-8-29T03:36:16Z
2021-08-29T01:38:00Z,42.805,6.029,13.2983,4.59997,2470.38,2021-8-29T03:39:19Z
2021-08-29T01:41:03Z,42.805,6.029,13.2985,4.59997,2470.366,2021-8-29T03:42:23Z
2021-08-29T01:44:06Z,42.805,6.029,13.2984,4.59998,2470.357,2021-8-29T03:45:26Z
2021-08-29T01:47:09Z,42.805,6.029,13.2987,4.59998,2470.334,2021-8-29T03:48:29Z
2021-08-29T01:50:12Z,42.805,6.029,13.2985,4.59997,2470.343,2021-8-29T03:51:32Z
2021-08-29T01:53:16Z,42.805,6.029,13.2985,4.59998,2470.343,2021-8-29T03:54:35Z
2021-08-29T01:56:19Z,42.805,6.029,13.2983,4.59998,2470.343,2021-8-29T03:57:38Z
2021-08-29T01:59:22Z,42.805,6.029,13.2988,4.59998,2470.334,2021-8-29T04:00:41Z
2021-08-29T02:02:25Z,42.805,6.029,13.2984,4.59998,2470.343,2021-8-29T04:03:44Z
2021-08-29T02:05:28Z,42.805,6.029,13.2983,4.59999,2470.32,2021-8-29T04:06:48Z
2021-08-29T02:08:31Z,42.805,6.029,13.2985,4.59997,2470.357,2021-8-29T04:09:51Z
2021-08-29T02:11:34Z,42.805,6.029,13.2986,4.59998,2470.357,2021-8-29T04:12:54Z
2021-08-29T02:14:37Z,42.805,6.029,13.2986,4.59998,2470.32,2021-8-29T04:15:57Z
2021-08-29T02:17:41Z,42.805,6.029,13.2985,4.59997,2470.334,2021-8-29T04:19:00Z
2021-08-29T02:20:44Z,42.805,6.029,13.2985,4.59997,2470.334,2021-8-29T04:22:03Z
2021-08-29T02:23:47Z,42.805,6.029,13.2985,4.59997,2470.343,2021-8-29T04:25:06Z
2021-08-29T02:26:50Z,42.805,6.029,13.2990,4.59997,2470.357,2021-8-29T04:28:09Z
2021-08-29T02:29:53Z,42.805,6.029,13.2983,4.59997,2470.357,2021-8-29T04:31:13Z
2021-08-29T02:32:56Z,42.805,6.029,13.2984,4.59998,2470.343,2021-8-29T04:34:16Z
2021-08-29T02:35:59Z,42.805,6.029,13.2985,4.59997,2470.32,2021-8-29T04:37:19Z
2021-08-29T02:39:02Z,42.805,6.029,13.2987,4.59997,2470.357,2021-8-29T04:40:22Z
2021-08-29T02:42:06Z,42.805,6.029,13.2983,4.59997,2470.334,2021-8-29T04:43:25Z
2021-08-29T02:45:09Z,42.805,6.029,13.2986,4.59996,2470.297,2021-8-29T04:46:28Z
2021-08-29T02:48:12Z,42.805,6.029,13.2986,4.59998,2470.334,2021-8-29T04:49:31Z
2021-08-29T02:51:15Z,42.805,6.029,13.2983,4.59997,2470.31,2021-8-29T04:52:34Z
2021-08-29T02:54:18Z,42.805,6.029,13.2986,4.59997,2470.32,2021-8-29T04:55:38Z
2021-08-29T02:57:21Z,42.805,6.029,13.2988,4.59997,2470.297,2021-8-29T04:58:41Z
2021-08-29T03:00:24Z,42.805,6.029,13.2982,4.59996,2470.31,2021-8-29T05:01:44Z
2021-08-29T03:03:27Z,42.805,6.029,13.2986,4.59997,2470.31,2021-8-29T05:04:47Z
2021-08-29T03:06:30Z,42.805,6.029,13.2986,4.59998,2470.264,2021-8-29T05:07:50Z
2021-08-29T03:09:34Z,42.805,6.029,13.2986,4.59997,2470.287,2021-8-29T05:10:53Z
2021-08-29T03:12:37Z,42.805,6.029,13.2982,4.59996,2470.297,2021-8-29T05:13:56Z
2021-08-29T03:15:40Z,42.805,6.029,13.2983,4.59996,2470.31,2021-8-29T05:16:59Z
2021-08-29T03:18:43Z,42.805,6.029,13.2988,4.59996,2470.334,2021-8-29T05:20:03Z
2021-08-29T03:21:46Z,42.805,6.029,13.2983,4.59996,2470.297,2021-8-29T05:23:06Z
2021-08-29T03:24:49Z,42.805,6.029,13.2986,4.59999,2470.32,2021-8-29T05:26:09Z
2021-08-29T03:27:52Z,42.805,6.029,13.2986,4.59996,2470.287,2021-8-29T05:29:12Z
2021-08-29T03:30:55Z,42.805,6.029,13.2983,4.59998,2470.287,2021-8-29T05:32:15Z
2021-08-29T03:33:59Z,42.805,6.029,13.2983,4.59998,2470.31,2021-8-29T05:35:18Z
2021-08-29T03:37:02Z,42.805,6.029,13.2986,4.59997,2470.32,2021-8-29T05:38:21Z
2021-08-29T03:40:05Z,42.805,6.029,13.2984,4.59996,2470.297,2021-8-29T05:41:24Z
2021-08-29T03:43:08Z,42.805,6.029,13.2987,4.59999,2470.31,2021-8-29T05:44:28Z
2021-08-29T03:46:11Z,42.805,6.029,13.2985,4.59998,2470.273,2021-8-29T05:47:31Z
2021-08-29T03:49:14Z,42.805,6.029,13.2985,4.59997,2470.297,2021-8-29T05:50:34Z
2021-08-29T03:52:17Z,42.805,6.029,13.2985,4.59997,2470.31,2021-8-29T05:53:37Z
2021-08-29T03:55:20Z,42.805,6.029,13.2984,4.59996,2470.31,2021-8-29T05:56:40Z
2021-08-29T03:58:24Z,42.805,6.029,13.2984,4.59997,2470.297,2021-8-29T05:59:43Z
2021-08-29T04:01:27Z,42.805,6.029,13.2986,4.59996,2470.297,2021-8-29T06:02:46Z
2021-08-29T04:04:30Z,42.805,6.029,13.2982,4.59996,2470.273,2021-8-29T06:05:49Z
2021-08-29T04:07:33Z,42.805,6.029,13.2985,4.59996,2470.25,2021-8-29T06:08:53Z
2021-08-29T04:10:36Z,42.805,6.029,13.2986,4.59997,2470.273,2021-8-29T06:11:56Z
2021-08-29T04:13:39Z,42.805,6.029,13.2988,4.59997,2470.287,2021-8-29T06:14:59Z
2021-08-29T04:16:42Z,42.805,6.029,13.2987,4.59997,2470.297,2021-8-29T06:18:02Z
2021-08-29T04:19:45Z,42.805,6.029,13.2983,4.59997,2470.287,2021-8-29T06:21:05Z
2021-08-29T04:22:49Z,42.805,6.029,13.2986,4.59997,2470.273,2021-8-29T06:24:08Z
2021-08-29T04:25:52Z,42.805,6.029,13.2984,4.59996,2470.31,2021-8-29T06:27:11Z
2021-08-29T04:28:55Z,42.805,6.029,13.2986,4.59996,2470.297,2021-8-29T06:30:14Z
2021-08-29T04:31:58Z,42.805,6.029,13.2987,4.59996,2470.273,2021-8-29T06:33:18Z
2021-08-29T04:35:01Z,42.805,6.029,13.2986,4.59997,2470.31,2021-8-29T06:36:21Z
2021-08-29T04:38:04Z,42.805,6.029,13.2985,4.59997,2470.25,2021-8-29T06:39:24Z
2021-08-29T04:41:07Z,42.805,6.029,13.2982,4.59997,2470.287,2021-8-29T06:42:27Z
2021-08-29T04:44:10Z,42.805,6.029,13.2985,4.59996,2470.273,2021-8-29T06:45:30Z
2021-08-29T04:47:14Z,42.805,6.029,13.2987,4.59997,2470.25,2021-8-29T06:48:33Z
2021-08-29T04:50:17Z,42.805,6.029,13.2985,4.59996,2470.273,2021-8-29T06:51:36Z
2021-08-29T04:53:20Z,42.805,6.029,13.2983,4.59997,2470.25,2021-8-29T06:54:39Z
2021-08-29T04:56:23Z,42.805,6.029,13.2986,4.59997,2470.287,2021-8-29T06:57:43Z
2021-08-29T04:59:26Z,42.805,6.029,13.2981,4.59997,2470.273,2021-8-29T07:00:46Z
2021-08-29T05:02:29Z,42.805,6.029,13.2984,4.59996,2470.25,2021-8-29T07:03:49Z
2021-08-29T05:05:32Z,42.805,6.029,13.2988,4.59996,2470.25,2021-8-29T07:06:52Z
2021-08-29T05:08:35Z,42.805,6.029,13.2986,4.59997,2470.264,2021-8-29T07:09:55Z
2021-08-29T05:11:38Z,42.805,6.029,13.2984,4.59996,2470.287,2021-8-29T07:12:58Z
2021-08-29T05:14:42Z,42.805,6.029,13.2984,4.59998,2470.287,2021-8-29T07:16:01Z
2021-08-29T05:17:45Z,42.805,6.029,13.2982,4.59996,2470.25,2021-8-29T07:19:04Z
2021-08-29T05:20:48Z,42.805,6.029,13.2985,4.59996,2470.25,2021-8-29T07:22:08Z
2021-08-29T05:23:51Z,42.805,6.029,13.2982,4.59996,2470.25,2021-8-29T07:25:11Z
2021-08-29T05:26:54Z,42.805,6.029,13.2984,4.59996,2470.31,2021-8-29T07:28:14Z
2021-08-29T05:29:57Z,42.805,6.029,13.2986,4.59998,2470.25,2021-8-29T07:31:17Z
2021-08-29T05:33:00Z,42.805,6.029,13.2987,4.59996,2470.264,2021-8-29T07:34:20Z
2021-08-29T05:36:04Z,42.805,6.029,13.2982,4.59996,2470.273,2021-8-29T07:37:23Z
2021-08-29T05:39:07Z,42.805,6.029,13.2984,4.59998,2470.25,2021-8-29T07:40:26Z
2021-08-29T05:42:10Z,42.805,6.029,13.2985,4.59996,2470.287,2021-8-29T07:43:29Z
2021-08-29T05:45:13Z,42.805,6.029,13.2984,4.59997,2470.273,2021-8-29T07:46:33Z
2021-08-29T05:48:16Z,42.805,6.029,13.2986,4.59996,2470.24,2021-8-29T07:49:36Z
2021-08-29T05:51:19Z,42.805,6.029,13.2983,4.59996,2470.273,2021-8-29T07:52:39Z
2021-08-29T05:54:22Z,42.805,6.029,13.2986,4.59998,2470.227,2021-8-29T07:55:42Z
2021-08-29T05:57:25Z,42.805,6.029,13.2985,4.59996,2470.25,2021-8-29T07:58:45Z
2021-08-29T06:00:28Z,42.805,6.029,13.2986,4.59997,2470.227,2021-8-29T08:01:48Z
2021-08-29T06:03:32Z,42.805,6.029,13.2984,4.59997,2470.273,2021-8-29T08:04:51Z
2021-08-29T06:06:35Z,42.805,6.029,13.2988,4.59996,2470.273,2021-8-29T08:07:54Z
2021-08-29T06:09:38Z,42.805,6.029,13.2983,4.59997,2470.297,2021-8-29T08:10:57Z
2021-08-29T06:12:41Z,42.805,6.029,13.2987,4.59997,2470.273,2021-8-29T08:14:01Z
2021-08-29T06:15:44Z,42.805,6.029,13.2986,4.59997,2470.25,2021-8-29T08:17:04Z
2021-08-29T06:18:47Z,42.805,6.029,13.2989,4.59996,2470.264,2021-8-29T08:20:07Z
2021-08-29T06:21:50Z,42.805,6.029,13.2984,4.59996,2470.264,2021-8-29T08:23:10Z
2021-08-29T06:24:53Z,42.805,6.029,13.2988,4.59997,2470.264,2021-8-29T08:26:13Z
2021-08-29T06:27:57Z,42.805,6.029,13.2986,4.59996,2470.227,2021-8-29T08:29:16Z
2021-08-29T06:31:00Z,42.805,6.029,13.2984,4.59996,2470.227,2021-8-29T08:32:19Z
2021-08-29T06:34:03Z,42.805,6.029,13.2986,4.59996,2470.264,2021-8-29T08:35:22Z
2021-08-29T06:37:06Z,42.805,6.029,13.2986,4.59998,2470.25,2021-8-29T08:38:26Z
2021-08-29T06:40:09Z,42.805,6.029,13.2990,4.59997,2470.273,2021-8-29T08:41:29Z
2021-08-29T06:43:12Z,42.805,6.029,13.2986,4.59996,2470.25,2021-8-29T08:44:32Z
2021-08-29T06:46:15Z,42.805,6.029,13.2986,4.59997,2470.264,2021-8-29T08:47:35Z
2021-08-29T06:49:18Z,42.805,6.029,13.2983,4.59996,2470.25,2021-8-29T08:50:38Z
2021-08-29T06:52:22Z,42.805,6.029,13.2983,4.59998,2470.273,2021-8-29T08:53:41Z
2021-08-29T06:55:25Z,42.805,6.029,13.2985,4.59996,2470.273,2021-8-29T08:56:44Z
2021-08-29T06:58:28Z,42.805,6.029,13.2986,4.59999,2470.25,2021-8-29T08:59:47Z
2021-08-29T07:01:31Z,42.805,6.029,13.2987,4.59997,2470.25,2021-8-29T09:02:51Z
2021-08-29T07:04:34Z,42.805,6.029,13.2987,4.59997,2470.25,2021-8-29T09:05:54Z
2021-08-29T07:07:37Z,42.805,6.029,13.2985,4.59997,2470.227,2021-8-29T09:08:57Z
2021-08-29T07:10:40Z,42.805,6.029,13.2987,4.59999,2470.25,2021-8-29T09:12:00Z
2021-08-29T07:13:43Z,42.805,6.029,13.2984,4.59997,2470.287,2021-8-29T09:15:03Z
2021-08-29T07:16:46Z,42.805,6.029,13.2985,4.59996,2470.25,2021-8-29T09:18:06Z
2021-08-29T07:19:50Z,42.805,6.029,13.2985,4.59998,2470.25,2021-8-29T09:21:09Z
2021-08-29T07:22:53Z,42.805,6.029,13.2983,4.59996,2470.264,2021-8-29T09:24:12Z
2021-08-29T07:25:56Z,42.805,6.029,13.2980,4.59996,2470.287,2021-8-29T09:27:16Z
2021-08-29T07:28:59Z,42.805,6.029,13.2983,4.59997,2470.25,2021-8-29T09:30:19Z
2021-08-29T07:32:02Z,42.805,6.029,13.2982,4.59997,2470.25,2021-8-29T09:33:22Z
2021-08-29T07:35:05Z,42.805,6.029,13.2983,4.59997,2470.31,2021-8-29T09:36:25Z
2021-08-29T07:38:08Z,42.805,6.029,13.2990,4.59997,2470.227,2021-8-29T09:39:28Z
2021-08-29T07:41:11Z,42.805,6.029,13.2980,4.59997,2470.287,2021-8-29T09:42:31Z
2021-08-29T07:44:15Z,42.805,6.029,13.2982,4.59998,2470.273,2021-8-29T09:45:34Z
2021-08-29T07:47:18Z,42.805,6.029,13.2983,4.59997,2470.297,2021-8-29T09:48:37Z
2021-08-29T07:50:21Z,42.805,6.029,13.2986,4.59998,2470.287,2021-8-29T09:51:41Z
2021-08-29T07:53:24Z,42.805,6.029,13.2988,4.59997,2470.273,2021-8-29T09:54:44Z
2021-08-29T07:56:27Z,42.805,6.029,13.2983,4.59997,2470.227,2021-8-29T09:57:47Z
2021-08-29T07:59:30Z,42.805,6.029,13.2984,4.59997,2470.273,2021-8-29T10:00:50Z
2021-08-29T08:02:33Z,42.805,6.029,13.2986,4.59997,2470.273,2021-8-29T10:03:53Z
2021-08-29T08:05:37Z,42.805,6.029,13.2986,4.59999,2470.287,2021-8-29T10:06:56Z
2021-08-29T08:08:40Z,42.805,6.029,13.2983,4.59997,2470.273,2021-8-29T10:09:59Z
2021-08-29T08:11:43Z,42.805,6.029,13.2981,4.59997,2470.287,2021-8-29T10:13:02Z
2021-08-29T08:14:46Z,42.805,6.029,13.2986,4.59997,2470.297,2021-8-29T10:16:06Z
2021-08-29T08:17:49Z,42.805,6.029,13.2983,4.59997,2470.297,2021-8-29T10:19:09Z
2021-08-29T08:20:52Z,42.805,6.029,13.2986,4.59996,2470.287,2021-8-29T10:22:12Z
2021-08-29T08:23:55Z,42.805,6.029,13.2985,4.59998,2470.31,2021-8-29T10:25:15Z
2021-08-29T08:26:58Z,42.805,6.029,13.2986,4.59997,2470.273,2021-8-29T10:28:18Z
2021-08-29T08:30:02Z,42.805,6.029,13.2983,4.59997,2470.287,2021-8-29T10:31:21Z
2021-08-29T08:33:05Z,42.805,6.029,13.2983,4.59997,2470.264,2021-8-29T10:34:24Z
2021-08-29T08:36:08Z,42.805,6.029,13.2984,4.59997,2470.273,2021-8-29T10:37:27Z
2021-08-29T08:39:11Z,42.805,6.029,13.2987,4.59996,2470.31,2021-8-29T10:40:31Z
2021-08-29T08:42:14Z,42.805,6.029,13.2986,4.59998,2470.31,2021-8-29T10:43:34Z
2021-08-29T08:45:17Z,42.805,6.029,13.2985,4.59996,2470.31,2021-8-29T10:46:37Z
2021-08-29T08:48:20Z,42.805,6.029,13.2987,4.59997,2470.334,2021-8-29T10:49:40Z
2021-08-29T08:51:23Z,42.805,6.029,13.2988,4.59997,2470.297,2021-8-29T10:52:43Z
2021-08-29T08:54:27Z,42.805,6.029,13.2982,4.59998,2470.334,2021-8-29T10:55:46Z
2021-08-29T08:57:30Z,42.805,6.029,13.2983,4.59997,2470.31,2021-8-29T10:58:49Z
2021-08-29T09:00:33Z,42.805,6.029,13.2982,4.59996,2470.297,2021-8-29T11:01:52Z
2021-08-29T09:03:36Z,42.805,6.029,13.2983,4.59997,2470.32,2021-8-29T11:04:56Z
2021-08-29T09:06:39Z,42.805,6.029,13.2985,4.59997,2470.334,2021-8-29T11:07:59Z
2021-08-29T09:09:42Z,42.805,6.029,13.2988,4.59997,2470.297,2021-8-29T11:11:02Z
2021-08-29T09:12:45Z,42.805,6.029,13.2984,4.59998,2470.31,2021-8-29T11:14:05Z
2021-08-29T09:15:48Z,42.805,6.029,13.2986,4.59997,2470.283,2021-8-29T11:17:08Z
2021-08-29T09:18:52Z,42.805,6.029,13.2986,4.59996,2470.297,2021-8-29T11:20:11Z
2021-08-29T09:21:55Z,42.805,6.029,13.2980,4.59997,2470.32,2021-8-29T11:23:14Z
2021-08-29T09:24:58Z,42.805,6.029,13.2983,4.59996,2470.32,2021-8-29T11:26:17Z
2021-08-29T09:28:01Z,42.805,6.029,13.2984,4.59997,2470.334,2021-8-29T11:29:21Z
2021-08-29T09:31:04Z,42.805,6.029,13.2983,4.59998,2470.357,2021-8-29T11:32:24Z
2021-08-29T09:34:07Z,42.805,6.029,13.2987,4.59997,2470.297,2021-8-29T11:35:27Z
2021-08-29T09:37:10Z,42.805,6.029,13.2983,4.59999,2470.297,2021-8-29T11:38:30Z
2021-08-29T09:40:13Z,42.805,6.029,13.2986,4.59997,2470.343,2021-8-29T11:41:33Z
2021-08-29T09:43:17Z,42.805,6.029,13.2990,4.59998,2470.357,2021-8-29T11:44:36Z
2021-08-29T09:46:20Z,42.805,6.029,13.2986,4.59999,2470.306,2021-8-29T11:47:39Z
2021-08-29T09:49:23Z,42.805,6.029,13.2983,4.59997,2470.343,2021-8-29T11:50:42Z
2021-08-29T09:52:26Z,42.805,6.029,13.2983,4.59997,2470.343,2021-8-29T11:53:46Z
2021-08-29T09:55:29Z,42.805,6.029,13.2985,4.59997,2470.343,2021-8-29T11:56:49Z
2021-08-29T09:58:32Z,42.805,6.029,13.2983,4.59996,2470.334,2021-8-29T11:59:52Z
2021-08-29T10:01:35Z,42.805,6.029,13.2985,4.59998,2470.343,2021-8-29T12:02:55Z
2021-08-29T10:04:39Z,42.805,6.029,13.2983,4.59999,2470.357,2021-8-29T12:05:58Z
2021-08-29T10:07:42Z,42.805,6.029,13.2984,4.59998,2470.38,2021-8-29T12:09:01Z
2021-08-29T10:10:45Z,42.805,6.029,13.2986,4.59997,2470.334,2021-8-29T12:12:04Z
2021-08-29T10:13:48Z,42.805,6.029,13.2985,4.59998,2470.38,2021-8-29T12:15:07Z
2021-08-29T10:16:51Z,42.805,6.029,13.2985,4.59997,2470.357,2021-8-29T12:18:11Z
2021-08-29T10:19:54Z,42.805,6.029,13.2989,4.59999,2470.357,2021-8-29T12:21:14Z
2021-08-29T10:22:57Z,42.805,6.029,13.2988,4.59997,2470.38,2021-8-29T12:24:17Z
2021-08-29T10:26:00Z,42.805,6.029,13.2984,4.59999,2470.357,2021-8-29T12:27:20Z
2021-08-29T10:29:04Z,42.805,6.029,13.2986,4.59997,2470.297,2021-8-29T12:30:23Z
2021-08-29T10:32:07Z,42.805,6.029,13.2985,4.59998,2470.366,2021-8-29T12:33:26Z
2021-08-29T10:35:10Z,42.805,6.029,13.2988,4.59996,2470.32,2021-8-29T12:36:29Z
2021-08-29T10:38:13Z,42.805,6.029,13.2982,4.59998,2470.357,2021-8-29T12:39:33Z
2021-08-29T10:41:16Z,42.805,6.029,13.2984,4.59999,2470.357,2021-8-29T12:42:36Z
2021-08-29T10:44:19Z,42.805,6.029,13.2990,4.59998,2470.366,2021-8-29T12:45:39Z
2021-08-29T10:47:22Z,42.805,6.029,13.2985,4.59996,2470.366,2021-8-29T12:48:42Z
2021-08-29T10:50:25Z,42.805,6.029,13.2983,4.59997,2470.357,2021-8-29T12:51:45Z
2021-08-29T10:53:29Z,42.805,6.029,13.2982,4.59997,2470.366,2021-8-29T12:54:48Z
2021-08-29T10:56:32Z,42.805,6.029,13.2983,4.59997,2470.38,2021-8-29T12:57:51Z
2021-08-29T10:59:35Z,42.805,6.029,13.2984,4.59997,2470.343,2021-8-29T13:00:54Z
2021-08-29T11:02:38Z,42.805,6.029,13.2979,4.59997,2470.343,2021-8-29T13:03:58Z
2021-08-29T11:05:41Z,42.805,6.029,13.2979,4.59996,2470.357,2021-8-29T13:07:01Z
2021-08-29T11:08:44Z,42.805,6.029,13.2986,4.59997,2470.343,2021-8-29T13:10:04Z
2021-08-29T11:11:47Z,42.805,6.029,13.2983,4.59999,2470.32,2021-8-29T13:13:07Z
2021-08-29T11:14:50Z,42.805,6.029,13.2986,4.59998,2470.343,2021-8-29T13:16:10Z
2021-08-29T11:17:54Z,42.805,6.029,13.2986,4.59998,2470.343,2021-8-29T13:19:13Z
2021-08-29T11:20:57Z,42.805,6.029,13.2986,4.59996,2470.343,2021-8-29T13:22:16Z
2021-08-29T11:24:00Z,42.805,6.029,13.2983,4.59998,2470.366,2021-8-29T13:25:19Z
2021-08-29T11:27:03Z,42.805,6.029,13.2985,4.59997,2470.32,2021-8-29T13:28:23Z
2021-08-29T11:30:06Z,42.805,6.029,13.2987,4.59998,2470.357,2021-8-29T13:31:26Z
2021-08-29T11:33:09Z,42.805,6.029,13.2988,4.59998,2470.357,2021-8-29T13:34:29Z
2021-08-29T11:36:12Z,42.805,6.029,13.2984,4.59998,2470.32,2021-8-29T13:37:32Z
2021-08-29T11:39:16Z,42.805,6.029,13.2987,4.59997,2470.343,2021-8-29T13:40:35Z
2021-08-29T11:42:19Z,42.805,6.029,13.2984,4.59997,2470.32,2021-8-29T13:43:38Z
2021-08-29T11:45:22Z,42.805,6.029,13.2982,4.59997,2470.32,2021-8-29T13:46:41Z
2021-08-29T11:48:25Z,42.805,6.029,13.2987,4.59997,2470.32,2021-8-29T13:49:44Z
2021-08-29T11:51:28Z,42.805,6.029,13.2987,4.59996,2470.32,2021-8-29T13:52:48Z
2021-08-29T11:54:31Z,42.805,6.029,13.2983,4.59997,2470.343,2021-8-29T13:55:51Z
2021-08-29T11:57:34Z,42.805,6.029,13.2984,4.59996,2470.32,2021-8-29T13:58:54Z
2021-08-29T12:00:37Z,42.805,6.029,13.2983,4.59997,2470.32,2021-8-29T14:01:57Z
2021-08-29T12:03:41Z,42.805,6.029,13.2983,4.59998,2470.32,2021-8-29T14:05:00Z
2021-08-29T12:06:44Z,42.805,6.029,13.2984,4.59999,2470.357,2021-8-29T14:08:03Z
2021-08-29T12:09:47Z,42.805,6.029,13.2983,4.59998,2470.32,2021-8-29T14:11:06Z
2021-08-29T12:12:50Z,42.805,6.029,13.2983,4.59996,2470.343,2021-8-29T14:14:09Z
2021-08-29T12:15:53Z,42.805,6.029,13.2986,4.59999,2470.343,2021-8-29T14:17:13Z
2021-08-29T12:18:56Z,42.805,6.029,13.2986,4.59998,2470.334,2021-8-29T14:20:16Z
2021-08-29T12:21:59Z,42.805,6.029,13.2989,4.59997,2470.357,2021-8-29T14:23:19Z
2021-08-29T12:25:02Z,42.805,6.029,13.2983,4.59999,2470.343,2021-8-29T14:26:22Z
2021-08-29T12:28:06Z,42.805,6.029,13.2981,4.59998,2470.343,2021-8-29T14:29:25Z
2021-08-29T12:31:09Z,42.805,6.029,13.2989,4.59999,2470.343,2021-8-29T14:32:28Z
2021-08-29T12:34:12Z,42.805,6.029,13.2984,4.59998,2470.366,2021-8-29T14:35:31Z
2021-08-29T12:37:15Z,42.805,6.029,13.2981,4.59998,2470.366,2021-8-29T14:38:35Z
2021-08-29T12:40:18Z,42.805,6.029,13.2989,4.59999,2470.357,2021-8-29T14:41:38Z
2021-08-29T12:43:21Z,42.805,6.029,13.2986,4.59999,2470.334,2021-8-29T14:44:41Z
2021-08-29T12:46:24Z,42.805,6.029,13.2982,4.59997,2470.334,2021-8-29T14:47:44Z
2021-08-29T12:49:27Z,42.805,6.029,13.2986,4.59996,2470.334,2021-8-29T14:50:47Z
2021-08-29T12:52:31Z,42.805,6.029,13.2983,4.59998,2470.297,2021-8-29T14:53:50Z
2021-08-29T12:55:34Z,42.805,6.029,13.2988,4.59996,2470.32,2021-8-29T14:56:53Z
2021-08-29T12:58:37Z,42.805,6.029,13.2983,4.59997,2470.343,2021-8-29T14:59:56Z
2021-08-29T13:01:40Z,42.805,6.029,13.2986,4.59996,2470.297,2021-8-29T15:03:00Z
2021-08-29T13:04:43Z,42.805,6.029,13.2983,4.59999,2470.32,2021-8-29T15:06:03Z
2021-08-29T13:07:46Z,42.805,6.029,13.2984,4.59999,2470.334,2021-8-29T15:09:06Z
2021-08-29T13:10:49Z,42.805,6.029,13.2986,4.59998,2470.343,2021-8-29T15:12:09Z
2021-08-29T13:13:52Z,42.805,6.029,13.2988,4.59997,2470.32,2021-8-29T15:15:12Z
2021-08-29T13:16:56Z,42.805,6.029,13.2985,4.59997,2470.334,2021-8-29T15:18:15Z
2021-08-29T13:19:59Z,42.805,6.029,13.2984,4.59998,2470.31,2021-8-29T15:21:18Z
2021-08-29T13:23:02Z,42.805,6.029,13.2986,4.59997,2470.32,2021-8-29T15:24:21Z
2021-08-29T13:26:05Z,42.805,6.029,13.2985,4.59998,2470.31,2021-8-29T15:27:25Z
2021-08-29T13:29:08Z,42.805,6.029,13.2985,4.59999,2470.31,2021-8-29T15:30:28Z
2021-08-29T13:32:11Z,42.805,6.029,13.2984,4.59997,2470.31,2021-8-29T15:33:31Z
2021-08-29T13:35:14Z,42.805,6.029,13.2983,4.59998,2470.357,2021-8-29T15:36:34Z
2021-08-29T13:38:17Z,42.805,6.029,13.2985,4.59997,2470.357,2021-8-29T15:39:37Z
2021-08-29T13:41:21Z,42.805,6.029,13.2986,4.59997,2470.297,2021-8-29T15:42:40Z
2021-08-29T13:44:24Z,42.805,6.029,13.2984,4.59999,2470.32,2021-8-29T15:45:43Z
2021-08-29T13:47:27Z,42.805,6.029,13.2984,4.59999,2470.297,2021-8-29T15:48:46Z
2021-08-29T13:50:30Z,42.805,6.029,13.2986,4.59997,2470.297,2021-8-29T15:51:50Z
2021-08-29T13:53:33Z,42.805,6.029,13.2986,4.59997,2470.32,2021-8-29T15:54:53Z
2021-08-29T13:56:36Z,42.805,6.029,13.2984,4.59998,2470.273,2021-8-29T15:57:56Z
2021-08-29T13:59:39Z,42.805,6.029,13.2986,4.59999,2470.334,2021-8-29T16:00:59Z
2021-08-29T14:02:42Z,42.805,6.029,13.2983,4.59999,2470.273,2021-8-29T16:04:02Z
2021-08-29T14:05:46Z,42.805,6.029,13.2983,4.59998,2470.297,2021-8-29T16:07:05Z
2021-08-29T14:08:49Z,42.805,6.029,13.2986,4.59997,2470.297,2021-8-29T16:10:08Z
2021-08-29T14:11:52Z,42.805,6.029,13.2986,4.59999,2470.334,2021-8-29T16:13:11Z
2021-08-29T14:14:55Z,42.805,6.029,13.2988,4.59998,2470.297,2021-8-29T16:16:15Z
2021-08-29T14:17:58Z,42.805,6.029,13.2983,4.59997,2470.297,2021-8-29T16:19:18Z
2021-08-29T14:21:01Z,42.805,6.029,13.2982,4.59997,2470.334,2021-8-29T16:22:21Z
2021-08-29T14:24:04Z,42.805,6.029,13.2983,4.59997,2470.31,2021-8-29T16:25:24Z
2021-08-29T14:27:07Z,42.805,6.029,13.2983,4.59999,2470.283,2021-8-29T16:28:27Z
2021-08-29T14:30:11Z,42.805,6.029,13.2986,4.59996,2470.297,2021-8-29T16:31:30Z
2021-08-29T14:33:14Z,42.805,6.029,13.2985,4.59998,2470.334,2021-8-29T16:34:33Z
2021-08-29T14:36:17Z,42.805,6.029,13.2986,4.59999,2470.31,2021-8-29T16:37:36Z
2021-08-29T14:39:20Z,42.805,6.029,13.2988,4.59997,2470.32,2021-8-29T16:40:40Z
2021-08-29T14:42:23Z,42.805,6.029,13.2982,4.59998,2470.297,2021-8-29T16:43:43Z
2021-08-29T14:45:26Z,42.805,6.029,13.2985,4.59996,2470.297,2021-8-29T16:46:46Z
2021-08-29T14:48:29Z,42.805,6.029,13.2988,4.59997,2470.297,2021-8-29T16:49:49Z
2021-08-29T14:51:33Z,42.805,6.029,13.2986,4.59999,2470.273,2021-8-29T16:52:52Z
2021-08-29T14:54:36Z,42.805,6.029,13.2985,4.59998,2470.334,2021-8-29T16:55:55Z
2021-08-29T14:57:39Z,42.805,6.029,13.2986,4.59997,2470.273,2021-8-29T16:58:58Z
2021-08-29T15:00:42Z,42.805,6.029,13.2987,4.59997,2470.287,2021-8-29T17:02:01Z
2021-08-29T15:03:45Z,42.805,6.029,13.2986,4.59997,2470.25,2021-8-29T17:05:05Z
2021-08-29T15:06:48Z,42.805,6.029,13.2983,4.59997,2470.273,2021-8-29T17:08:08Z
2021-08-29T15:09:51Z,42.805,6.029,13.2986,4.59998,2470.334,2021-8-29T17:11:11Z
2021-08-29T15:12:54Z,42.805,6.029,13.2984,4.59999,2470.31,2021-8-29T17:14:14Z